Current Version              Previous Version:    01  02  03  04  05  06  07  08  09  10  11  12  13  14  15  16  17  18  19  20  21  22  23  24  25  26  27  28  29  30  
   31  32  33  34  35  36  37  38  39  40  41  42  43  44  45  46  47  48  49  50  51  52  53  54  55  56  57  58  59  60  

[Printable]
318
ASUS44 KFWD 161715
RWRTX
NORTH TEXAS HOURLY WEATHER ROUNDUP
NATIONAL WEATHER SERVICE FORT WORTH TX
1200 PM CDT WED APR 16 2014

NOTE: "FAIR" INDICATES FEW OR NO CLOUDS BELOW 12,000 FEET WITH NO
SIGNIFICANT WEATHER AND/OR OBSTRUCTIONS TO VISIBILITY.

TXZ118-119-161800-
DALLAS/FORT WORTH METROPLEX

CITY           SKY/WX    TMP DP  RH WIND       PRES   REMARKS
DFW AIRPORT    PTSUNNY   62  33  33 S24G35    30.08F
DALLAS LOVE    PTSUNNY   62  31  31 S24G33    30.11F
FTW MEACHAM    SUNNY     61  33  35 S23G31    30.07F
DAL-EXECUTIVE  MOSUNNY   62  34  35 S13G25    30.09F
FTW-ALLIANCE   PTSUNNY   60  34  37 S21G28    30.06F
FTW-NAS-JRB    PTSUNNY   63  29  27 S18G26    30.12F
FTW-SPINKS     SUNNY     61  30  31 S25G33    30.10F
ARLINGTON      MOSUNNY   62  33  33 S17G31    30.08F
ADDISON        PTSUNNY   59  32  36 SE18G28   30.11F
MESQUITE       SUNNY     57  34  41 SE18G28   30.13F
LANCASTER      MOSUNNY   59  33  38 S17G30    30.13F
$$

TXZ091>094-102>105-117-120-121-131>134-161800-
NORTH CENTRAL TEXAS

CITY           SKY/WX    TMP DP  RH WIND       PRES   REMARKS
SHRMAN/DENISON MOSUNNY   60  31  33 S22G32    30.09F
GAINESVILLE    PTSUNNY   58  32  36 SE20G28   30.07F
BOWIE          PTSUNNY   59  31  34 SE16G29   30.02F
BRIDGEPORT     PTSUNNY   60  27  28 S14G26    30.07S
DECATUR        MOSUNNY   58  29  32 SE22G29   30.05F
DENTON         MOSUNNY   61  33  35 S23G33    30.08F
MCKINNEY       MOSUNNY   59  34  39 S21G29    30.10F
GREENVILLE     MOSUNNY   59  32  36 SE17G25   30.14F
ROCKWALL       MOSUNNY   62  36  37 SE17G29   30.11F HAZE
TERRELL        MOSUNNY   59  32  36 S22G30    30.14F
WAXAHACHIE     MOSUNNY   58  31  36 SE20G30   30.12F
CLEBURNE       MOSUNNY   61  34  36 S24G30    30.10F
GRANBURY       MOSUNNY   62  30  30 S17G30    30.07F
$$

TXZ083>090-098>101-113>116-127>130-139>142-154-155-161800-
WESTERN NORTH TEXAS

CITY           SKY/WX    TMP DP  RH WIND       PRES   REMARKS
WICHITA FALLS  MOSUNNY   64  25  22 S26G35    29.97F
WF-KICKAPOO    MOSUNNY   64  24  21 S21G29    29.99F
VERNON         SUNNY     64  22  20 S18       29.94F
ABILENE        MOSUNNY   61  26  26 S23G31    29.96F
ABILENE-DYESS  MOSUNNY   63  25  23 S23       29.96S
BRECKENRIDGE   SUNNY     64  24  21 S23G30    29.98F
GRAHAM         MOSUNNY   62  27  26 SE17G25   29.99S
MINERAL WELLS  MOSUNNY   62  27  26 SE23G33   30.03F
STEPHENVILLE   MOSUNNY   60  29  30 S16G29    30.06F
COMANCHE       MOSUNNY   61  28  28 S20G26    30.04F
BROWNWOOD      SUNNY     61  28  29 S16G23    30.03F
COLEMAN        SUNNY     62  30  30 S20G29    30.00F
BRADY            N/A     61  30  31 S15       30.01F
$$

TXZ143>147-156>162-174-175-161800-
CENTRAL TEXAS

CITY           SKY/WX    TMP DP  RH WIND       PRES   REMARKS
WACO           MOSUNNY   62  38  40 S22G33    30.11F
WACO-TSTC      SUNNY     63  37  39 S17G26    30.12
WACO-MCGREGOR  SUNNY     61  37  41 S22G30    30.12F
HILLSBORO      MOSUNNY   60  35  37 SE21      30.11F
CORSICANA      PTSUNNY   62  35  36 S18G32    30.15F
MEXIA          MOSUNNY   57  35  44 SE12G22   30.13F
HEARNE         PTSUNNY   62  42  47 SE15G23   30.15F
CAMERON        MOSUNNY   63  40  44 S13G21    30.13F
TEMPLE         SUNNY     63  37  39 S17G28    30.10F
KILLEEN        MOSUNNY   61  37  41 SE18G30   30.08F
KILLEEN-SKYLRK SUNNY     59  37  44 SE20G26   30.07F
FORT HOOD      SUNNY     63  38  39 SE18G28   30.08F
GATESVILLE     SUNNY     61  36  39 SE16G23   30.10F
HAMILTON       MOSUNNY   61  29  30 S24G30    30.07F
LAMPASAS       MOSUNNY   60  36  40 S15G24    30.06F
$$

TXZ095>097-106>112-122>126-135>138-148>153-164>167-161800-
EAST TEXAS

CITY           SKY/WX    TMP DP  RH WIND       PRES   REMARKS
PARIS          MOSUNNY   55  37  50 S18G29    30.16F
SULPHUR SPRNGS MOSUNNY   58  34  39 S18       30.17F
CLARKSVILLE    PTSUNNY   58  33  38 SE14      30.16F
MOUNT PLEASANT PTSUNNY   58  33  40 SE15G21   30.19F
GILMER         MOSUNNY   57  34  41 SE12      30.19F
MINEOLA        MOSUNNY   57  32  38 S10G20    30.18F
TYLER          MOSUNNY   58  33  39 SE18G26   30.17F
LONGVIEW       MOSUNNY   58  33  39 SE14G23   30.19F
MARSHALL       MOSUNNY   56  32  41 SE8       30.22F
ATHENS         MOSUNNY   55  32  41 SE9       30.15F
PALESTINE      MOSUNNY   59  31  35 SE13      30.19F HAZE
JACKSONVILLE   MOSUNNY   56  30  36 S9G17     30.20F
HENDERSON      MOSUNNY   58  30  33 SE7       30.20F
NACOGDOCHES    MOSUNNY   57  34  41 S12       30.20F
LUFKIN         MOSUNNY   60  31  33 SE14      30.20F
$$

SUPPLEMENTAL OBSERVATIONS (CENTRAL)

CITY           SKY/WX    TMP DP  RH WIND       PRES   REMARKS
LAKE TEXOMA      N/A     57  28  33 SE15        N/A
CADDO GRASSLND   N/A     59  34  38 S14G24      N/A
PAT MAYSE LAKE   N/A     55  34  44 SE18        N/A
GREENVILLE       N/A     61  34  36 S15G24      N/A
CEDAR HILL       N/A     63  34  34 SE15G26     N/A
ATHENS           N/A     59  32  36 S15G22      N/A
PALESTINE        N/A     61  34  36 S10G18      N/A
MCGREGOR         N/A     63  36  36 S21G29      N/A
TEMPLE           N/A     63  37  39 S20G25      N/A
$$

SUPPLEMENTAL OBSERVATIONS (WEST)

CITY           SKY/WX    TMP DP  RH WIND       PRES   REMARKS
POSSUM KINGDOM   N/A     64  28  25 S17G26      N/A
LBJ GRASSLAND    N/A     61  30  31 S20G31      N/A
GRANBURY         N/A     63  32  31 S21G29      N/A
HAMBY            N/A     63  28  27 S22G30      N/A
$$

SUPPLEMENTAL OBSERVATIONS (EAST)

CITY           SKY/WX    TMP DP  RH WIND       PRES   REMARKS
TEXARKANA        N/A     59  32  36 S7          N/A
LINDEN           N/A     61  34  36 SE6G14      N/A
GILMER           N/A     59  32  36 S12G21      N/A
HENDERSON        N/A     57  30  35 SE13        N/A
LUFKIN           N/A     59  32  36 MISG        N/A
N SABINE NF      N/A     61  32  33 MISG        N/A
$$

SUPPLEMENTAL OBSERVATIONS ARE A COLLECTION OF AUTOMATED INSTRUMENTS
THAT ARE MAINTAINED BY A VARIETY OF FEDERAL AND STATE AGENCIES.
CERTAIN ELEMENTS...SUCH AS HUMIDITY VALUES AND SUSTAINED WIND
SPEEDS...MAY BE APPROXIMATED.